Айон

Россия / Чукотский автономный округ     69°56′15″N   167°59′52″E
темп.,
°C
ветер,
м/с
пор.,
м/с
влажн.,
%
обл.,
%
осадки,
мм/ч
давл.,
гПа
погр.,
м
8 мая, сб
сб800:00−11ссв3310099 0.0 101812
03:00−14с33100100 0.0 101813
06:00−14св22100100 0.1 101819
09:00−9всв2395100 0.1 1018311
12:00−6вюв3387100 0.1 1019391
15:00−4юв3383100 0.0 1019483
18:00−4юв238696 0.0 1019279
21:00−10вюв229796 0.0 101910
9 мая, вс
вс900:00−13всв11100100 0.0 101910
03:00−14ссз11100100 0.0 10199
06:00−13ссз1110099 0.0 101938
09:00−8ссз33100100 0.0 1019201
12:00−6ссз2290100 0.1 1019443
15:00−4ююз2380100 0.1 1019681
18:00−3ююв3380100 0.1 1020653
21:00−4юв2381100 0.1 102052
10 мая, пн
пн1000:00−5юв2281100 0.1 102011
03:00−5юв1180100 0.1 102110
06:00−5юв1177100 0.1 1021452
09:00−5вюв1174100 0.1 1021566
12:00−4вюв217599 0.1 1021594
15:00−4вюв217699 0.0 1021533
18:00−3вюв217599 0.1 1021491
21:00−6ююв228999 0.0 102136
11 мая, вт
вт1100:00−7ю2290100 0.0 102122
03:00−9ю229399 0.0 102227
06:00−8ю2292100 0.0 102270
09:00−6ю228898 0.0 1022190
12:00−5ю218460 0.1 1022359
15:00−4ю218063 0.0 1022433
18:00−4юв218171 0.0 1022375
21:00−9юв229762 0.0 102330
12 мая, ср
ср1200:00−13вюв2210096 0.0 102310
03:00−14в2210099 0.0 102310
06:00−13всв2210098 0.0 102316
09:00−8в2395100 0.0 1023135
12:00−6вюв238978 0.0 1023218
15:00−4вюв33839 0.0 1023333
18:00−4юв33846 0.0 1023232
21:00−8юв2296100 0.0 102213